Guest (not logged in) | Log in

Project information

Duration: 2018-12-20 00:00 onwards
Historical data from: 1995-01-01
Position: 0° 0' 0.00" N
0° 0' 0.00" E
0 m A.S.L
Contact: Carsten Weber Kock
Description: Zephir 317 måler vind i Roskilde

Measurements

NameHeight [m]DurationLatest (2019-01-18 23:50)
Dir_100m 0.00 2018-12-20 14:20 onwards 297.16 Deg
Dir_10m 0.00 2018-12-20 14:20 onwards 290.08 Deg
Dir_125m 0.00 2018-12-20 14:20 onwards 304.71 Deg
Dir_150m 0.00 2018-12-20 14:20 onwards 311.14 Deg
Dir_200m 0.00 2018-12-20 14:20 onwards 313.92 Deg
Dir_20m 0.00 2018-12-20 14:20 onwards 275.84 Deg
Dir_30m 0.00 2018-12-20 14:20 onwards 275.66 Deg
Dir_38m 0.00 2018-12-20 14:20 onwards 276.91 Deg
Dir_50m 0.00 2018-12-20 14:20 onwards 278.67 Deg
Dir_60m 0.00 2018-12-20 14:20 onwards 282.57 Deg
Dir_800m 0.00 2018-12-20 14:20 onwards -
Dir_80m 0.00 2018-12-20 14:20 onwards 290.08 Deg
Humidity 0.00 2018-12-20 14:20 onwards -
MetDir 0.00 2018-12-20 14:20 onwards 244.79 Deg
Metwsp 0.00 2018-12-20 14:20 onwards 2.71 m/s
Pressure 0.00 2018-12-20 14:20 onwards 1008.50 mbar
Temp 0.00 2018-12-20 14:20 onwards -2.30 DegC
TI_100m 0.00 2018-12-20 14:20 onwards 0.02 -
TI_10m 0.00 2018-12-20 14:20 onwards 0.18 -
TI_125m 0.00 2018-12-20 14:20 onwards 0.04 -
TI_150m 0.00 2018-12-20 14:20 onwards 0.02 -
TI_200m 0.00 2018-12-20 14:20 onwards 0.01 -
TI_20m 0.00 2018-12-20 14:20 onwards 0.17 -
TI_30m 0.00 2018-12-20 14:20 onwards 0.12 -
TI_38m 0.00 2018-12-20 14:20 onwards 0.10 -
TI_50m 0.00 2018-12-20 14:20 onwards 0.08 -
TI_60m 0.00 2018-12-20 14:20 onwards 0.05 -
TI_800m 0.00 2018-12-20 14:20 onwards -
TI_80m 0.00 2018-12-20 14:20 onwards 0.03 -
Vert_100m 0.00 2018-12-20 14:20 onwards -0.01 m/s
Vert_10m 0.00 2018-12-20 14:20 onwards 0.00 m/s
Vert_125m 0.00 2018-12-20 14:20 onwards -0.03 m/s
Vert_150m 0.00 2018-12-20 14:20 onwards -0.04 m/s
Vert_200m 0.00 2018-12-20 14:20 onwards -0.01 m/s
Vert_20m 0.00 2018-12-20 14:20 onwards 0.00 m/s
Vert_30m 0.00 2018-12-20 14:20 onwards 0.00 m/s
Vert_38m 0.00 2018-12-20 14:20 onwards -0.05 m/s
Vert_50m 0.00 2018-12-20 14:20 onwards -0.05 m/s
Vert_60m 0.00 2018-12-20 14:20 onwards -0.04 m/s
Vert_800m 0.00 2018-12-20 14:20 onwards -
Vert_80m 0.00 2018-12-20 14:20 onwards -0.03 m/s
Wsp_100m 0.00 2018-12-20 14:20 onwards 7.14 m/s
Wsp_10m 0.00 2018-12-20 14:20 onwards 3.02 m/s
Wsp_125m 0.00 2018-12-20 14:20 onwards 8.21 m/s
Wsp_150m 0.00 2018-12-20 14:20 onwards 9.37 m/s
Wsp_200m 0.00 2018-12-20 14:20 onwards 9.75 m/s
Wsp_20m 0.00 2018-12-20 14:20 onwards 3.52 m/s
Wsp_30m 0.00 2018-12-20 14:20 onwards 4.08 m/s
Wsp_38m 0.00 2018-12-20 14:20 onwards 4.57 m/s
Wsp_50m 0.00 2018-12-20 14:20 onwards 5.43 m/s
Wsp_60m 0.00 2018-12-20 14:20 onwards 6.03 m/s
Wsp_800m 0.00 2018-12-20 14:20 onwards -
Wsp_80m 0.00 2018-12-20 14:20 onwards 6.71 m/s
Comments and help requests to webmaster
© 2019